Terug naar catalogus

SL-16 DEB

ActiefLEO
NORAD 31795·DEBRIS·🇷🇺 Russia

Gelanceerd Jun 29, 2007 vanaf Baikonur Cosmodrome

Loading…

Volgende Passages (komende 24 uur)

TLE

VersSource: Space-Track

Epoch: Sep 14, 2026, 09:11 UTC

1 31795U 07029D   26257.38274852  .00000038  00000-0  79724-4 0  9998
2 31795  70.9479 129.2991 0223344 337.4562 199.0037 13.68647049959420

Volg SL-16 DEB in realtime met AllMySat

Download on the App Store